Location: Oberkirch
(48.5323°N, 8.0787°E)
Time: 06:11:58
(UTC+00:00)

Explorer 7 - Visible Passes

Search period start: 18 February 2026 00:00
Search period end: 28 February 2026 00:00
Orbit: 431 x 545 km, 50.2° (Epoch: 17 February)

Date Brightness Start Highest point End Pass type
(mag) Time Alt. Az. Time Alt. Az. Time Alt. Az.
18 Feb 6.5 18:09:32 10° WNW 18:13:15 79° NNE 18:15:22 25° E visible
18 Feb 8.9 19:48:00 10° W 19:49:44 23° W 19:49:44 23° W visible
19 Feb 6.6 17:43:51 10° WNW 17:47:33 78° NNE 17:50:56 13° E visible
19 Feb 7.9 19:22:19 10° W 19:25:18 36° SW 19:25:18 36° SW visible
20 Feb 7.5 18:56:36 10° W 19:00:10 40° SSW 19:00:55 36° S visible
21 Feb 7.6 18:30:52 10° W 18:34:25 41° SSW 18:36:36 21° SSE visible
22 Feb 7.6 18:05:06 10° W 18:08:38 42° SSW 18:12:18 10° SE visible
23 Feb 7.6 17:39:18 10° W 17:42:50 44° SSW 17:46:29 10° SE visible
23 Feb 9.6 19:19:58 10° SW 19:20:35 10° SW 19:21:12 10° SW visible
24 Feb 9.6 18:53:53 10° WSW 18:54:46 11° SW 18:55:41 10° SSW visible
25 Feb 9.6 18:27:49 10° WSW 18:28:55 11° SW 18:30:03 10° SSW visible
26 Feb 9.6 18:01:46 10° WSW 18:03:03 11° SW 18:04:21 10° SSW visible
27 Feb 9.7 17:35:43 10° WSW 17:37:09 12° SW 17:38:36 10° SSW visible
